N601EC KFCM-KPNM

Flight info

Callsign N601EC
Flight time 0h 32m
Altitude 4000
Route HODUP/N0110F030
Aircraft C172/L-SFG/C

Departure

Time 2026-04-19 13:11
Airport Flying Cloud Airport (KFCM)

Arrival

Time 2026-04-19 13:43
Airport Princeton Municipal Airport (KPNM)
Time Latitude Longitude Altitude Speed Heading
2026-04-19 12:54 44.82336 -93.45197 905 ft 0 kts 130°
2026-04-19 12:57 44.82337 -93.45197 905 ft 0 kts 130°
2026-04-19 12:57 44.82336 -93.45197 905 ft 0 kts 130°
2026-04-19 12:58 44.82337 -93.45197 905 ft 0 kts 130°
2026-04-19 12:59 44.82336 -93.45197 905 ft 0 kts 130°
2026-04-19 12:59 44.82337 -93.45197 905 ft 0 kts 130°
2026-04-19 13:00 44.82336 -93.45197 877 ft 0 kts 130°
2026-04-19 13:01 44.82337 -93.45197 877 ft 0 kts 130°
2026-04-19 13:01 44.82336 -93.45197 877 ft 0 kts 130°
2026-04-19 13:02 44.82337 -93.45197 877 ft 0 kts 130°
2026-04-19 13:03 44.82336 -93.45197 877 ft 0 kts 130°
2026-04-19 13:03 44.82337 -93.45197 877 ft 0 kts 130°
2026-04-19 13:03 44.82336 -93.45197 877 ft 0 kts 130°
2026-04-19 13:05 44.82337 -93.45197 877 ft 0 kts 130°
2026-04-19 13:05 44.82336 -93.45197 877 ft 0 kts 130°
2026-04-19 13:05 44.82337 -93.45197 877 ft 0 kts 130°
2026-04-19 13:06 44.82336 -93.45197 877 ft 0 kts 130°
2026-04-19 13:06 44.82337 -93.45197 877 ft 0 kts 130°
2026-04-19 13:07 44.82335 -93.45192 905 ft 0 kts 101°
2026-04-19 13:07 44.82340 -93.45181 905 ft 4 kts 36°
2026-04-19 13:07 44.82373 -93.45149 905 ft 1 kts 29°
2026-04-19 13:07 44.82368 -93.45137 905 ft 4 kts 203°
2026-04-19 13:08 44.82339 -93.45191 905 ft 10 kts 262°
2026-04-19 13:08 44.82391 -93.45282 905 ft 13 kts 302°
2026-04-19 13:08 44.82331 -93.45381 906 ft 15 kts 220°
2026-04-19 13:08 44.82231 -93.45413 909 ft 15 kts 187°
2026-04-19 13:09 44.82177 -93.45476 910 ft 10 kts 269°
2026-04-19 13:09 44.82178 -93.45492 909 ft 0 kts 278°
2026-04-19 13:10 44.82178 -93.45493 909 ft 0 kts 277°
2026-04-19 13:10 44.82183 -93.45539 907 ft 7 kts 326°
2026-04-19 13:10 44.82276 -93.45528 908 ft 34 kts
2026-04-19 13:10 44.82675 -93.45465 942 ft 73 kts
2026-04-19 13:11 44.83181 -93.45318 1202 ft 73 kts 13°
2026-04-19 13:11 44.83687 -93.45099 1387 ft 80 kts
2026-04-19 13:11 44.84258 -93.45056 1549 ft 82 kts
2026-04-19 13:11 44.84826 -93.45062 1714 ft 80 kts 357°
2026-04-19 13:12 44.85345 -93.45245 1909 ft 79 kts 334°
2026-04-19 13:12 44.85794 -93.45652 2071 ft 73 kts 332°
2026-04-19 13:12 44.86193 -93.46062 2178 ft 71 kts 331°
2026-04-19 13:12 44.86591 -93.46477 2265 ft 72 kts 332°
2026-04-19 13:13 44.86998 -93.46855 2373 ft 68 kts 333°
2026-04-19 13:13 44.87368 -93.47223 2470 ft 66 kts 330°
2026-04-19 13:13 44.87726 -93.47617 2557 ft 65 kts 329°
2026-04-19 13:13 44.88079 -93.48017 2652 ft 65 kts 329°
2026-04-19 13:14 44.88446 -93.48375 2770 ft 64 kts 333°
2026-04-19 13:14 44.88852 -93.48597 2847 ft 65 kts
2026-04-19 13:14 44.89291 -93.48522 2960 ft 61 kts
2026-04-19 13:14 44.89717 -93.48454 3025 ft 62 kts
2026-04-19 13:15 44.90153 -93.48482 3055 ft 64 kts 350°
2026-04-19 13:15 44.90581 -93.48589 3144 ft 62 kts 351°
2026-04-19 13:15 44.91002 -93.48729 3220 ft 62 kts 345°
2026-04-19 13:15 44.91418 -93.48897 3302 ft 61 kts 345°
2026-04-19 13:16 44.91824 -93.49055 3367 ft 61 kts 346°
2026-04-19 13:16 44.92236 -93.49271 3555 ft 63 kts 339°
2026-04-19 13:16 44.92653 -93.49487 3731 ft 64 kts 339°
2026-04-19 13:16 44.93074 -93.49686 3865 ft 64 kts 345°
2026-04-19 13:17 44.93532 -93.49820 3967 ft 67 kts 348°
2026-04-19 13:17 44.94018 -93.49909 4021 ft 73 kts 352°
2026-04-19 13:17 44.94546 -93.49966 4074 ft 79 kts 353°
2026-04-19 13:17 44.95117 -93.50005 4088 ft 85 kts 354°
2026-04-19 13:18 44.95718 -93.50041 4096 ft 88 kts 355°
2026-04-19 13:18 44.96336 -93.50064 4099 ft 89 kts 356°
2026-04-19 13:18 44.96941 -93.50068 4093 ft 86 kts 356°
2026-04-19 13:18 44.97541 -93.50059 4094 ft 87 kts 357°
2026-04-19 13:19 44.98138 -93.50041 4096 ft 87 kts 356°
2026-04-19 13:19 44.98729 -93.50164 4092 ft 85 kts 346°
2026-04-19 13:19 44.99306 -93.50353 4092 ft 85 kts 345°
2026-04-19 13:19 44.99876 -93.50599 4093 ft 86 kts 339°
2026-04-19 13:20 45.00431 -93.50916 4097 ft 86 kts 339°
2026-04-19 13:20 45.00988 -93.51233 4097 ft 87 kts 339°
2026-04-19 13:20 45.01549 -93.51552 4096 ft 87 kts 339°
2026-04-19 13:20 45.02110 -93.51869 4097 ft 87 kts 339°
2026-04-19 13:21 45.02686 -93.52139 4097 ft 87 kts 343°
2026-04-19 13:21 45.03266 -93.52365 4097 ft 88 kts 344°
2026-04-19 13:21 45.03856 -93.52592 4100 ft 88 kts 345°
2026-04-19 13:21 45.04456 -93.52809 4104 ft 90 kts 348°
2026-04-19 13:22 45.05071 -93.52965 4101 ft 89 kts 348°
2026-04-19 13:22 45.05678 -93.53119 4098 ft 88 kts 348°
2026-04-19 13:22 45.06279 -93.53270 4094 ft 88 kts 348°
2026-04-19 13:22 45.06878 -93.53421 4094 ft 87 kts 348°
2026-04-19 13:23 45.07472 -93.53567 4096 ft 87 kts 351°
2026-04-19 13:23 45.08076 -93.53624 4098 ft 87 kts 353°
2026-04-19 13:23 45.08684 -93.53685 4098 ft 88 kts 353°
2026-04-19 13:23 45.09288 -93.53744 4097 ft 88 kts 353°
2026-04-19 13:24 45.09897 -93.53804 4093 ft 88 kts 353°
2026-04-19 13:24 45.10509 -93.53853 4092 ft 88 kts 355°
2026-04-19 13:24 45.11120 -93.53895 4095 ft 87 kts 355°
2026-04-19 13:24 45.11726 -93.53937 4095 ft 87 kts 354°
2026-04-19 13:25 45.12330 -93.53980 4093 ft 87 kts 354°
2026-04-19 13:25 45.12932 -93.54021 4096 ft 88 kts 354°
2026-04-19 13:25 45.13539 -93.54057 4096 ft 87 kts 355°
2026-04-19 13:25 45.14159 -93.54092 4047 ft 91 kts 355°
2026-04-19 13:26 45.14803 -93.54129 3916 ft 93 kts 355°
2026-04-19 13:26 45.15448 -93.54180 3780 ft 93 kts 355°
2026-04-19 13:26 45.16091 -93.54235 3648 ft 92 kts 355°
2026-04-19 13:26 45.16737 -93.54184 3522 ft 94 kts
2026-04-19 13:27 45.17379 -93.54027 3390 ft 95 kts 12°
2026-04-19 13:27 45.18012 -93.53775 3250 ft 95 kts 12°
2026-04-19 13:27 45.18642 -93.53519 3182 ft 92 kts 12°
2026-04-19 13:27 45.19248 -93.53276 3136 ft 90 kts 11°
2026-04-19 13:28 45.19858 -93.53032 3039 ft 94 kts 12°
2026-04-19 13:28 45.20469 -93.52794 2994 ft 88 kts 12°
2026-04-19 13:28 45.21050 -93.52566 2994 ft 86 kts 12°
2026-04-19 13:28 45.21616 -93.52340 2987 ft 84 kts 12°
2026-04-19 13:29 45.22169 -93.52116 2979 ft 81 kts 12°
2026-04-19 13:29 45.22705 -93.51900 2992 ft 81 kts 12°
2026-04-19 13:29 45.23255 -93.51679 2998 ft 83 kts 13°
2026-04-19 13:29 45.23816 -93.51451 2992 ft 84 kts 12°
2026-04-19 13:30 45.24384 -93.51233 2997 ft 85 kts 12°
2026-04-19 13:30 45.24955 -93.50992 2997 ft 89 kts 12°
2026-04-19 13:30 45.26177 -93.50503 2991 ft 91 kts 12°
2026-04-19 13:31 45.26778 -93.50257 2996 ft 89 kts 12°
2026-04-19 13:31 45.27369 -93.50017 2987 ft 88 kts 12°
2026-04-19 13:31 45.27967 -93.49778 2936 ft 93 kts 13°
2026-04-19 13:31 45.28634 -93.49517 2835 ft 101 kts 13°
2026-04-19 13:32 45.29300 -93.49252 2702 ft 99 kts 12°
2026-04-19 13:32 45.29964 -93.48999 2566 ft 98 kts 12°
2026-04-19 13:32 45.30630 -93.48744 2436 ft 100 kts 13°
2026-04-19 13:32 45.31310 -93.48666 2298 ft 98 kts 355°
2026-04-19 13:33 45.31983 -93.48745 2246 ft 94 kts 355°
2026-04-19 13:33 45.32611 -93.48825 2236 ft 91 kts 355°
2026-04-19 13:33 45.33232 -93.48906 2239 ft 89 kts 355°
2026-04-19 13:33 45.33849 -93.49028 2237 ft 90 kts 351°
2026-04-19 13:34 45.34457 -93.49206 2236 ft 90 kts 348°
2026-04-19 13:34 45.35062 -93.49419 2231 ft 89 kts 347°
2026-04-19 13:34 45.35656 -93.49645 2227 ft 88 kts 347°
2026-04-19 13:34 45.36240 -93.49876 2224 ft 86 kts 346°
2026-04-19 13:35 45.36824 -93.50104 2228 ft 87 kts 346°
2026-04-19 13:35 45.37412 -93.50324 2229 ft 88 kts 347°
2026-04-19 13:35 45.38020 -93.50563 2179 ft 93 kts 345°
2026-04-19 13:35 45.38658 -93.50837 2080 ft 96 kts 345°
2026-04-19 13:36 45.39286 -93.51108 2045 ft 94 kts 345°
2026-04-19 13:36 45.39888 -93.51397 2030 ft 90 kts 341°
2026-04-19 13:36 45.40466 -93.51722 2024 ft 88 kts 341°
2026-04-19 13:36 45.41031 -93.52040 2021 ft 87 kts 341°
2026-04-19 13:37 45.41412 -93.52248 2020 ft 87 kts 340°
2026-04-19 13:37 45.42151 -93.52652 2026 ft 86 kts 341°
2026-04-19 13:37 45.42527 -93.52864 2027 ft 87 kts 340°
2026-04-19 13:37 45.43088 -93.53173 2028 ft 86 kts 340°
2026-04-19 13:38 45.43651 -93.53481 2029 ft 86 kts 341°
2026-04-19 13:38 45.44215 -93.53782 2028 ft 87 kts 341°
2026-04-19 13:38 45.44777 -93.54099 2025 ft 87 kts 340°
2026-04-19 13:38 45.45338 -93.54412 2024 ft 87 kts 340°
2026-04-19 13:39 45.45889 -93.54717 2026 ft 85 kts 340°
2026-04-19 13:39 45.46435 -93.55029 2026 ft 85 kts 340°
2026-04-19 13:39 45.46982 -93.55351 2026 ft 85 kts 340°
2026-04-19 13:39 45.47544 -93.55688 1987 ft 89 kts 337°
2026-04-19 13:40 45.48066 -93.56091 2037 ft 83 kts 334°
2026-04-19 13:40 45.48565 -93.56487 2048 ft 82 kts 335°
2026-04-19 13:40 45.49087 -93.56837 2070 ft 90 kts 338°
2026-04-19 13:40 45.49695 -93.57221 2142 ft 100 kts 339°
2026-04-19 13:41 45.50362 -93.57596 2213 ft 103 kts 342°
2026-04-19 13:41 45.50992 -93.57940 2189 ft 92 kts 342°
2026-04-19 13:41 45.51581 -93.58251 1994 ft 92 kts 341°
2026-04-19 13:41 45.52169 -93.58606 1847 ft 87 kts 339°
2026-04-19 13:42 45.52671 -93.58919 1713 ft 83 kts 339°
2026-04-19 13:42 45.53223 -93.59230 1545 ft 90 kts 340°
2026-04-19 13:42 45.53812 -93.59561 1386 ft 93 kts 341°
2026-04-19 13:42 45.54384 -93.59907 1299 ft 82 kts 338°
2026-04-19 13:43 45.54844 -93.60182 1174 ft 65 kts 340°
2026-04-19 13:43 45.55263 -93.60405 1071 ft 64 kts 339°
2026-04-19 13:43 45.55666 -93.60638 992 ft 57 kts 338°
2026-04-19 13:43 45.55962 -93.60807 984 ft 34 kts 338°
2026-04-19 13:44 45.56112 -93.60839 984 ft 15 kts 47°
2026-04-19 13:44 45.56165 -93.60752 983 ft 9 kts 50°
2026-04-19 13:44 45.56138 -93.60707 982 ft 7 kts 145°
2026-04-19 13:44 45.56100 -93.60669 986 ft 6 kts 143°
2026-04-19 13:45 45.56080 -93.60648 980 ft 0 kts 161°